Weather Roundup
Issued by NWS Springfield, MO

Home | Current Version | Previous Version | Text Only | Print | Product List | Glossary On
Versions: 1 2 3 4 5 6 7 8 9 10 11 12 13 14 15 16 17 18 19 20 21 22 23 24 25 26 27 28 29 30 31 32 33 34 35 36 37 38 39 40 41 42 43 44 45 46 47 48 49 50
000
NZUS99 KSGF 312007
HRRSGF

HOURLY WEATHER
NATIONAL WEATHER SERVICE SPRINGFIELD MO
300 PM CDT TUE MAR 31 2020

......SGF CWA......

CITY           SKY/WX    TMP DP  RH WIND       PRES   REMARKS
SPRINGFIELD    FAIR      64  39  39 NW13G22   29.97F
JOPLIN         FAIR      62  47  57 NW12G18   30.02F
WEST PLAINS    FAIR      65  35  33 NW10G20   29.95F
ROLLA          FAIR      64  35  34 N14G21    29.95F
OSAGE BEACH    FAIR      65  32  29 NW8G17    29.97F
BRANSON        MOSUNNY   63  37  39 N17G23    29.99F

......SURROUNDING SGF CWA......

CITY           SKY/WX    TMP DP  RH WIND       PRES   REMARKS
CHANUTE        FAIR      68  45  43 W13G20    30.03F
PARSONS        FAIR      67  47  48 NW7       30.04F
COFFEYVILLE    FAIR      66  46  48 NW8       30.03F
EMPORIA        FAIR      66  42  41 MISG      30.01F
GROVE OK       FAIR      63  45  51 NW7       30.04F
ROGERS AR      PTSUNNY   61  44  53 NW12      30.02F
SILOAM SPRINGS FAIR      61  47  59 NW10G20   30.03F
HARRISON AR    FAIR      64  36  35 NW10G20   29.98F
NEAR YELLVILLE FAIR      65  39  38 NW12      29.96F

......KANSAS AND MISSOURI......

CITY           SKY/WX    TMP DP  RH WIND       PRES   REMARKS
KANSAS CTY INT FAIR      68  33  27 N8        29.98F
DOWNTOWN KC    FAIR      67  32  27 MISG      29.97F
COLUMBIA       FAIR      64  34  32 NW8G23    29.96F
SEDALIA        FAIR      65  31  28 N16       29.99F
ST JOSEPH      FAIR      68  30  24 E6        29.98F
ST LOUIS       PTSUNNY   60  33  36 N16G24    29.94F
SPIRIT OF STL  PTSUNNY   62  37  39 N6G20     29.93F
KIRKSVILLE     FAIR      62  35  36 N12       29.98F
WICHITA        PTSUNNY   63  45  51 SW12      30.04F
TOPEKA         PTSUNNY   66  43  43 W8        29.99F
OLATHE         FAIR      66  37  34 N9G21     29.99F

......TENNESSEE......

CITY           SKY/WX    TMP DP  RH WIND       PRES   REMARKS
MEMPHIS        PTSUNNY   59  43  55 N17       29.93R
NASHVILLE      PTSUNNY   53  42  66 N17G24    29.84S

......ARKANSAS.......

CITY           SKY/WX    TMP DP  RH WIND       PRES   REMARKS
FAYETTEVILLE   FAIR      63  45  51 NW12G24   30.02F
FT SMITH       PTSUNNY   65  45  48 VRB6      30.00F
LITTLE ROCK    PTSUNNY   62  45  53 NW9       29.99F

......OKLAHOMA.......

CITY           SKY/WX    TMP DP  RH WIND       PRES   REMARKS
TULSA          PTSUNNY   63  46  54 NW5       30.04F
PONCA CITY     PTSUNNY   65  46  50 VRB3      30.06F
MCALESTER      PTSUNNY   64  45  49 NE12      30.06F
OKLAHOMA CITY  FAIR      61  44  53 E5        30.07F

......IOWA............

CITY           SKY/WX    TMP DP  RH WIND       PRES   REMARKS
DES MOINES     FAIR      60  33  36 VRB7      30.01F
QUAD CITIES    CLOUDY    46  32  58 N9        30.02S

......ILLINOIS........

CITY           SKY/WX    TMP DP  RH WIND       PRES   REMARKS
QUINCY         PTSUNNY   58  38  47 N14       29.95F
CHICAGO        CLOUDY    42  33  70 N15       30.00F




USA.gov is the U.S. government's official web portal to all federal, state and local government web resources and services.
  • National Weather Service
  • El Paso, TX Weather Forecast Office
  • 7955 Airport Rd
  • Santa Teresa, NM 88008
  • (575) 589-4088
  • Page Author: EPZ Webmaster
  • Web Master's E-mail: sr-epz.webmaster@noaa.gov
  • Page last modified: Mar 10th, 2020 21:02 UTC